Weather History for KONO - August, 2014

Change the Weather History Date:

Friday, August 29, 2014

  Actual Average Record
Temperature  
Mean Temperature 76 °F 69 °F  
Max Temperature 91 °F 88 °F 105 °F (1967)
Min Temperature 61 °F 51 °F 35 °F (1960)
Degree Days  
Heating Degree Days 0 1  
Month to date heating degree days 0 5  
Since 1 June heating degree days 28 62  
Since 1 July heating degree days 0 10  
Cooling Degree Days 11 5  
Month to date cooling degree days 291 259  
Year to date cooling degree days 992 782  
Since 1 June cooling degree days 944 746  
Growing Degree Days 26 (Base 50)    
Moisture  
Dew Point 43 °F    
Average Humidity 32    
Maximum Humidity 43    
Minimum Humidity 21    
Precipitation  
Precipitation T in 0.00 in 0.04 in (1951)
Month to date precipitation 0.46 0.16  
Year to date precipitation 5.47 6.22  
Sea Level Pressure  
Sea Level Pressure 29.84 in    
Wind  
Wind Speed 7 mph (NNW)    
Max Wind Speed 26 mph    
Max Gust Speed 35 mph    
Visibility 10 miles    
Events      
T = Trace of Precipitation, MM = Missing Value Source: NWS Daily Summary

Daily Weather History Graph

Daily Weather History Graph

Search for Another Location

Airport or City:

Trip Planner

Search our weather history database for the weather conditions in past years. The results will help you decide how hot, cold, wet, or windy it might be!

Date:

Astronomy

Aug. 29, 2014 Rise Set
Actual Time 7:07 AM MDT 8:29 PM MDT
Civil Twilight 6:37 AM MDT 8:58 PM MDT
Nautical Twilight 6:01 AM MDT 9:34 PM MDT
Astronomical Twilight 5:23 AM MDT 10:13 PM MDT
Moon 11:11 AM MDT (8/29) 10:19 PM MDT (8/29)
Length of Visible Light 14h 20m
Length of Day
13h 21m
Waxing Crescent, 15% of the Moon is Illuminated
Aug 29
Waxing Crescent
Sep 2
First Quarter
Sep 8
Full
Sep 15
Last Quarter
Sep 24
New

Hourly Weather History & Observations

Time (MDT) Temp. Heat Index Dew Point Humidity Pressure Visibility Wind Dir Wind Speed Gust Speed Precip Events Conditions
12:53 AM 75.0 °F - 43.0 °F 32% 29.90 in 10.0 mi NNW 3.5 mph - N/A   Clear
1:53 AM 73.9 °F - 39.0 °F 28% 29.89 in 10.0 mi NW 11.5 mph - N/A   Clear
2:53 AM 73.0 °F - 36.0 °F 26% 29.90 in 10.0 mi NW 10.4 mph - N/A   Clear
3:53 AM 70.0 °F - 36.0 °F 29% 29.90 in 10.0 mi WNW 3.5 mph - N/A   Clear
4:53 AM 72.0 °F - 32.0 °F 23% 29.91 in 10.0 mi NW 9.2 mph 19.6 mph N/A   Clear
5:53 AM 68.0 °F - 34.0 °F 28% 29.92 in 10.0 mi West 4.6 mph - N/A   Clear
6:53 AM 64.9 °F - 37.0 °F 36% 29.93 in 10.0 mi West 6.9 mph - N/A   Clear
7:53 AM 63.0 °F - 39.0 °F 41% 29.94 in 10.0 mi West 9.2 mph - N/A   Clear
9:53 AM 73.0 °F - 42.1 °F 33% 29.94 in 10.0 mi Calm Calm - N/A   Clear
10:53 AM 77.0 °F - 41.0 °F 28% 29.92 in 10.0 mi Calm Calm - N/A   Clear
11:53 AM 81.0 °F - 41.0 °F 24% 29.91 in 10.0 mi ESE 3.5 mph - N/A   Clear
12:53 PM 84.0 °F - 41.0 °F 22% 29.88 in 10.0 mi Calm Calm - N/A   Clear
2:53 PM 90.0 °F - 45.0 °F 21% 29.81 in 10.0 mi East 6.9 mph - N/A   Clear
3:53 PM 90.0 °F - 45.0 °F 21% 29.78 in 10.0 mi ESE 3.5 mph - N/A   Clear
4:53 PM 87.1 °F - 51.1 °F 29% 29.76 in 10.0 mi ESE 4.6 mph - N/A   Clear
5:53 PM 86.0 °F - 51.1 °F 30% 29.74 in 10.0 mi East 5.8 mph - N/A   Clear
6:53 PM 84.9 °F 83.2 °F 53.1 °F 33% 29.73 in 10.0 mi ESE 3.5 mph - N/A   Clear
7:53 PM 82.0 °F 81.2 °F 53.1 °F 37% 29.72 in 10.0 mi Calm Calm - N/A   Clear
9:53 PM 79.0 °F - 48.9 °F 35% 29.71 in 10.0 mi NNW 5.8 mph - N/A   Scattered Clouds
10:53 PM 79.0 °F - 44.1 °F 29% 29.72 in 8.0 mi NW 21.9 mph 32.2 mph 0.00 in   Mostly Cloudy
11:53 PM 77.0 °F - 41.0 °F 28% 29.73 in 10.0 mi NW 21.9 mph 32.2 mph N/A   Clear